Station Historical Data
Daily Summary for July 13, 2017 Units:  English    Metric   Both
« Previous Day
Next Day »
Daily Weekly Monthly Yearly Custom
  High: Low: Average:
Temperature: 89.0 °F 68.9 °F 76.5 °F
Dew Point: 59.1 °F 48.7 °F 53.5 °F
Humidity: 59 % 31 % 46 %
Wind Speed: 14.0 mph 0.0 mph 2.6 mph
Wind Gust: 18.0 mph - -
Wind:- - SSE
Pressure: 29.97 in 29.90 in -
Precipitation: 0.00 in    
Historical Graphs
 
 
Tabular Data for July 13, 2017
Time Temperature Dew Point Pressure Wind Wind Speed Wind Gust Humidity Rainfall Rate (Hourly) solar
00:04 71.6 °F 52.0 °F 29.92 in East 6.0 mph 12.0 mph 50 % 0.00 in 0.00 W/m2
00:10 71.6 °F 52.0 °F 29.92 in East 6.0 mph 12.0 mph 50 % 0.00 in 0.00 W/m2
00:15 71.5 °F 51.9 °F 29.92 in East 11.0 mph 14.0 mph 50 % 0.00 in 0.00 W/m2
00:20 71.5 °F 51.9 °F 29.92 in East 7.0 mph 11.0 mph 50 % 0.00 in 0.00 W/m2
00:25 71.4 °F 51.3 °F 29.92 in Calm   12.0 mph 49 % 0.00 in 0.00 W/m2
00:30 71.4 °F 51.3 °F 29.92 in ESE 8.0 mph 12.0 mph 49 % 0.00 in 0.00 W/m2
00:35 71.3 °F 51.7 °F 29.92 in ESE 8.0 mph 16.0 mph 50 % 0.00 in 0.00 W/m2
00:40 71.3 °F 51.7 °F 29.92 in Calm   14.0 mph 50 % 0.00 in 0.00 W/m2
00:45 71.3 °F 51.7 °F 29.92 in Calm   15.0 mph 50 % 0.00 in 0.00 W/m2
00:50 71.2 °F 51.6 °F 29.92 in East 6.0 mph 12.0 mph 50 % 0.00 in 0.00 W/m2
00:55 71.2 °F 51.6 °F 29.92 in East 4.0 mph 13.0 mph 50 % 0.00 in 0.00 W/m2
01:00 71.1 °F 51.5 °F 29.92 in Calm   11.0 mph 50 % 0.00 in 0.00 W/m2
01:05 71.1 °F 51.5 °F 29.92 in East 7.0 mph 14.0 mph 50 % 0.00 in 0.00 W/m2
01:10 71.1 °F 51.0 °F 29.92 in East 6.0 mph 13.0 mph 49 % 0.00 in 0.00 W/m2
01:15 71.1 °F 51.0 °F 29.92 in East 2.0 mph 13.0 mph 49 % 0.00 in 0.00 W/m2
01:20 71.1 °F 51.0 °F 29.92 in ESE 6.0 mph 13.0 mph 49 % 0.00 in 0.00 W/m2
01:25 71.1 °F 51.0 °F 29.92 in East 6.0 mph 13.0 mph 49 % 0.00 in 0.00 W/m2
01:30 71.1 °F 51.0 °F 29.92 in East 4.0 mph 12.0 mph 49 % 0.00 in 0.00 W/m2
01:35 71.1 °F 51.0 °F 29.92 in Calm   13.0 mph 49 % 0.00 in 0.00 W/m2
01:40 71.1 °F 51.5 °F 29.92 in ESE 2.0 mph 13.0 mph 50 % 0.00 in 0.00 W/m2
01:45 71.1 °F 51.5 °F 29.92 in Calm   13.0 mph 50 % 0.00 in 0.00 W/m2
01:50 71.1 °F 51.0 °F 29.92 in ESE 14.0 mph 14.0 mph 49 % 0.00 in 0.00 W/m2
01:55 71.1 °F 51.0 °F 29.92 in ESE 11.0 mph 14.0 mph 49 % 0.00 in 0.00 W/m2
02:00 71.0 °F 51.5 °F 29.91 in Calm   14.0 mph 50 % 0.00 in 0.00 W/m2
02:05 71.0 °F 50.9 °F 29.91 in Calm   12.0 mph 49 % 0.00 in 0.00 W/m2
02:10 70.8 °F 51.3 °F 29.91 in ESE 6.0 mph 12.0 mph 50 % 0.00 in 0.00 W/m2
02:15 70.8 °F 50.7 °F 29.91 in SE 8.0 mph 15.0 mph 49 % 0.00 in 0.00 W/m2
02:20 70.8 °F 51.3 °F 29.91 in Calm   14.0 mph 50 % 0.00 in 0.00 W/m2
02:25 70.7 °F 51.2 °F 29.91 in ESE 7.0 mph 14.0 mph 50 % 0.00 in 0.00 W/m2
02:30 70.7 °F 51.2 °F 29.91 in Calm   14.0 mph 50 % 0.00 in 0.00 W/m2
02:35 70.6 °F 51.1 °F 29.91 in ESE 2.0 mph 14.0 mph 50 % 0.00 in 0.00 W/m2
02:40 70.6 °F 51.1 °F 29.91 in East 5.0 mph 15.0 mph 50 % 0.00 in 0.00 W/m2
02:45 70.6 °F 51.1 °F 29.91 in East 4.0 mph 14.0 mph 50 % 0.00 in 0.00 W/m2
02:51 70.6 °F 51.6 °F 29.91 in Calm   14.0 mph 51 % 0.00 in 0.00 W/m2
02:56 70.5 °F 51.5 °F 29.91 in ESE 12.0 mph 15.0 mph 51 % 0.00 in 0.00 W/m2
03:01 70.5 °F 51.5 °F 29.91 in ESE 5.0 mph 16.0 mph 51 % 0.00 in 0.00 W/m2
03:06 70.4 °F 51.4 °F 29.91 in East 1.0 mph 4.0 mph 51 % 0.00 in 0.00 W/m2
03:11 70.4 °F 51.4 °F 29.91 in ESE 8.0 mph 14.0 mph 51 % 0.00 in 0.00 W/m2
03:16 70.3 °F 51.3 °F 29.91 in East 4.0 mph 16.0 mph 51 % 0.00 in 0.00 W/m2
03:21 70.3 °F 51.3 °F 29.91 in Calm   16.0 mph 51 % 0.00 in 0.00 W/m2
03:26 70.2 °F 51.2 °F 29.91 in East 7.0 mph 14.0 mph 51 % 0.00 in 0.00 W/m2
03:31 70.2 °F 51.2 °F 29.91 in East 4.0 mph 15.0 mph 51 % 0.00 in 0.00 W/m2
03:36 70.2 °F 51.2 °F 29.91 in ESE 5.0 mph 15.0 mph 51 % 0.00 in 0.00 W/m2
03:41 70.2 °F 51.2 °F 29.91 in East 5.0 mph 13.0 mph 51 % 0.00 in 0.00 W/m2
03:46 70.1 °F 51.2 °F 29.91 in ESE 2.0 mph 18.0 mph 51 % 0.00 in 0.00 W/m2
03:51 70.1 °F 50.6 °F 29.91 in East 9.0 mph 13.0 mph 50 % 0.00 in 0.00 W/m2
03:56 70.1 °F 51.2 °F 29.91 in Calm   14.0 mph 51 % 0.00 in 0.00 W/m2
04:01 70.1 °F 51.2 °F 29.91 in Calm   4.0 mph 51 % 0.00 in 0.00 W/m2
04:06 70.0 °F 51.1 °F 29.91 in ESE 5.0 mph 5.0 mph 51 % 0.00 in 0.00 W/m2
04:11 70.0 °F 51.6 °F 29.90 in East 11.0 mph 11.0 mph 52 % 0.00 in 0.00 W/m2
04:16 69.9 °F 51.5 °F 29.90 in East 2.0 mph 7.0 mph 52 % 0.00 in 0.00 W/m2
04:21 70.0 °F 51.6 °F 29.91 in Calm   2.0 mph 52 % 0.00 in 0.00 W/m2
04:26 69.9 °F 51.5 °F 29.90 in Calm   13.0 mph 52 % 0.00 in 0.00 W/m2
04:31 70.0 °F 51.1 °F 29.91 in East 5.0 mph 8.0 mph 51 % 0.00 in 0.00 W/m2
04:36 70.0 °F 51.1 °F 29.90 in Calm   4.0 mph 51 % 0.00 in 0.00 W/m2
04:41 70.0 °F 51.6 °F 29.91 in Calm   12.0 mph 52 % 0.00 in 0.00 W/m2
04:46 70.1 °F 51.7 °F 29.91 in East 8.0 mph 13.0 mph 52 % 0.00 in 0.00 W/m2
04:51 70.1 °F 51.7 °F 29.91 in ESE 5.0 mph 13.0 mph 52 % 0.00 in 0.00 W/m2
04:56 70.1 °F 51.7 °F 29.91 in ESE 6.0 mph 8.0 mph 52 % 0.00 in 0.00 W/m2
05:01 70.1 °F 51.7 °F 29.91 in East 7.0 mph 12.0 mph 52 % 0.00 in 0.00 W/m2
05:06 70.0 °F 51.6 °F 29.91 in East 7.0 mph 9.0 mph 52 % 0.00 in 0.00 W/m2
05:11 70.0 °F 51.6 °F 29.91 in ESE 6.0 mph 6.0 mph 52 % 0.00 in 0.00 W/m2
05:16 69.9 °F 51.5 °F 29.91 in ESE 11.0 mph 14.0 mph 52 % 0.00 in 0.00 W/m2
05:21 69.9 °F 51.5 °F 29.91 in ESE 1.0 mph 12.0 mph 52 % 0.00 in 0.00 W/m2
05:26 69.8 °F 51.9 °F 29.91 in East 1.0 mph 11.0 mph 53 % 0.00 in 0.00 W/m2
05:31 69.8 °F 51.9 °F 29.91 in East 6.0 mph 6.0 mph 53 % 0.00 in 0.00 W/m2
05:33 69.8 °F 51.9 °F 29.91 in Calm   8.0 mph 53 % 0.00 in 0.00 W/m2
05:38 69.7 °F 51.8 °F 29.91 in East 8.0 mph 9.0 mph 53 % 0.00 in 0.00 W/m2
05:39 69.7 °F 51.8 °F 29.91 in ESE 8.0 mph 9.0 mph 53 % 0.00 in 0.00 W/m2
05:44 69.7 °F 51.8 °F 29.91 in Calm   12.0 mph 53 % 0.00 in 0.00 W/m2
05:49 69.6 °F 51.7 °F 29.91 in Calm   13.0 mph 53 % 0.00 in 5.00 W/m2
05:54 69.6 °F 51.7 °F 29.91 in Calm   12.0 mph 53 % 0.00 in 7.00 W/m2
05:59 69.6 °F 51.7 °F 29.92 in ESE 8.0 mph 12.0 mph 53 % 0.00 in 9.00 W/m2
06:04 69.5 °F 51.6 °F 29.92 in Calm   13.0 mph 53 % 0.00 in 12.00 W/m2
06:09 69.5 °F 51.6 °F 29.92 in ESE 8.0 mph 12.0 mph 53 % 0.00 in 14.00 W/m2
06:14 69.5 °F 51.6 °F 29.92 in Calm   11.0 mph 53 % 0.00 in 18.00 W/m2
06:19 69.5 °F 52.2 °F 29.92 in Calm   12.0 mph 54 % 0.00 in 21.00 W/m2
06:24 69.4 °F 52.0 °F 29.92 in ESE 4.0 mph 12.0 mph 54 % 0.00 in 28.00 W/m2
06:29 69.4 °F 52.0 °F 29.92 in Calm   9.0 mph 54 % 0.00 in 37.00 W/m2
06:34 69.3 °F 52.5 °F 29.92 in ESE 8.0 mph 13.0 mph 55 % 0.00 in 47.00 W/m2
06:39 69.2 °F 52.4 °F 29.92 in East 2.0 mph 14.0 mph 55 % 0.00 in 60.00 W/m2
06:44 69.1 °F 52.3 °F 29.92 in ESE 6.0 mph 11.0 mph 55 % 0.00 in 70.00 W/m2
06:49 69.0 °F 52.2 °F 29.92 in ESE 4.0 mph 12.0 mph 55 % 0.00 in 88.00 W/m2
06:54 69.0 °F 52.7 °F 29.92 in East 9.0 mph 14.0 mph 56 % 0.00 in 104.00 W/m2
06:59 69.0 °F 52.7 °F 29.92 in Calm   10.0 mph 56 % 0.00 in 121.00 W/m2
07:04 68.9 °F 52.6 °F 29.93 in Calm   13.0 mph 56 % 0.00 in 137.00 W/m2
07:09 68.9 °F 53.1 °F 29.93 in ESE 7.0 mph 13.0 mph 57 % 0.00 in 153.00 W/m2
07:14 68.9 °F 53.1 °F 29.93 in Calm   14.0 mph 57 % 0.00 in 174.00 W/m2
07:19 68.9 °F 53.1 °F 29.93 in Calm   11.0 mph 57 % 0.00 in 193.00 W/m2
07:24 68.9 °F 53.1 °F 29.93 in Calm   9.0 mph 57 % 0.00 in 214.00 W/m2
07:29 68.9 °F 53.5 °F 29.93 in ESE 5.0 mph 12.0 mph 58 % 0.00 in 234.00 W/m2
07:34 69.0 °F 53.6 °F 29.93 in ESE 4.0 mph 11.0 mph 58 % 0.00 in 253.00 W/m2
07:39 69.0 °F 53.6 °F 29.93 in ESE 5.0 mph 9.0 mph 58 % 0.00 in 272.00 W/m2
07:44 69.1 °F 53.7 °F 29.93 in ESE 8.0 mph 11.0 mph 58 % 0.00 in 287.00 W/m2
07:49 69.1 °F 53.7 °F 29.94 in Calm   9.0 mph 58 % 0.00 in 304.00 W/m2
07:54 69.2 °F 53.8 °F 29.94 in Calm   9.0 mph 58 % 0.00 in 322.00 W/m2
07:59 69.2 °F 53.8 °F 29.94 in ESE 2.0 mph 9.0 mph 58 % 0.00 in 338.00 W/m2
08:04 69.4 °F 54.0 °F 29.94 in Calm   13.0 mph 58 % 0.00 in 353.00 W/m2
08:09 69.5 °F 54.6 °F 29.94 in ESE 1.0 mph 8.0 mph 59 % 0.00 in 367.00 W/m2
08:14 69.6 °F 54.7 °F 29.94 in ESE 4.0 mph 9.0 mph 59 % 0.00 in 381.00 W/m2
08:19 69.8 °F 54.8 °F 29.94 in Calm   12.0 mph 59 % 0.00 in 399.00 W/m2
08:24 69.9 °F 54.5 °F 29.94 in Calm   9.0 mph 58 % 0.00 in 413.00 W/m2
08:29 70.1 °F 54.7 °F 29.94 in Calm   7.0 mph 58 % 0.00 in 429.00 W/m2
08:34 70.3 °F 54.8 °F 29.94 in Calm   7.0 mph 58 % 0.00 in 446.00 W/m2
08:39 70.5 °F 55.0 °F 29.94 in Calm   5.0 mph 58 % 0.00 in 461.00 W/m2
08:44 70.7 °F 55.7 °F 29.95 in ESE 1.0 mph 8.0 mph 59 % 0.00 in 476.00 W/m2
08:49 70.9 °F 55.9 °F 29.95 in Calm   11.0 mph 59 % 0.00 in 494.00 W/m2
08:54 71.2 °F 55.7 °F 29.95 in Calm   8.0 mph 58 % 0.00 in 508.00 W/m2
08:59 71.4 °F 55.4 °F 29.95 in ESE 4.0 mph 8.0 mph 57 % 0.00 in 520.00 W/m2
09:04 71.7 °F 54.7 °F 29.95 in Calm   8.0 mph 55 % 0.00 in 534.00 W/m2
09:09 72.1 °F 55.6 °F 29.95 in Calm   1.0 mph 56 % 0.00 in 550.00 W/m2
09:14 72.4 °F 55.8 °F 29.95 in Calm   4.0 mph 56 % 0.00 in 564.00 W/m2
09:19 72.8 °F 55.7 °F 29.96 in Calm   7.0 mph 55 % 0.00 in 578.00 W/m2
09:24 73.0 °F 55.4 °F 29.95 in ESE 4.0 mph 4.0 mph 54 % 0.00 in 592.00 W/m2
09:29 73.3 °F 55.2 °F 29.96 in Calm   8.0 mph 53 % 0.00 in 606.00 W/m2
09:34 73.5 °F 55.3 °F 29.96 in ESE 2.0 mph 8.0 mph 53 % 0.00 in 621.00 W/m2
09:39 73.9 °F 55.2 °F 29.96 in ESE 1.0 mph 8.0 mph 52 % 0.00 in 635.00 W/m2
09:44 74.4 °F 56.2 °F 29.96 in Calm   4.0 mph 53 % 0.00 in 650.00 W/m2
09:49 74.7 °F 56.5 °F 29.96 in ESE 2.0 mph 6.0 mph 53 % 0.00 in 659.00 W/m2
09:54 75.1 °F 57.3 °F 29.95 in ESE 2.0 mph 5.0 mph 54 % 0.00 in 673.00 W/m2
09:59 75.4 °F 57.1 °F 29.96 in ESE 1.0 mph 6.0 mph 53 % 0.00 in 686.00 W/m2
10:04 75.7 °F 57.9 °F 29.95 in SE 4.0 mph 8.0 mph 54 % 0.00 in 698.00 W/m2
10:09 76.1 °F 57.2 °F 29.95 in Calm   7.0 mph 52 % 0.00 in 710.00 W/m2
10:14 76.4 °F 59.1 °F 29.96 in SSE 7.0 mph 7.0 mph 55 % 0.00 in 724.00 W/m2
10:20 76.8 °F 58.4 °F 29.95 in Calm   9.0 mph 53 % 0.00 in 735.00 W/m2
10:24 77.1 °F 56.5 °F 29.95 in SSE 5.0 mph 10.0 mph 49 % 0.00 in 745.00 W/m2
10:30 77.4 °F 56.2 °F 29.96 in Calm   7.0 mph 48 % 0.00 in 758.00 W/m2
10:35 77.9 °F 56.7 °F 29.96 in Calm   11.0 mph 48 % 0.00 in 766.00 W/m2
10:40 78.3 °F 57.0 °F 29.96 in Calm   9.0 mph 48 % 0.00 in 777.00 W/m2
10:45 78.7 °F 56.2 °F 29.96 in SSE 9.0 mph 9.0 mph 46 % 0.00 in 788.00 W/m2
10:50 79.3 °F 56.1 °F 29.96 in Calm   8.0 mph 45 % 0.00 in 798.00 W/m2
10:51 79.4 °F 56.8 °F 29.96 in SW 9.0 mph 9.0 mph 46 % 0.00 in 798.00 W/m2
10:56 79.9 °F 56.1 °F 29.96 in SSW 2.0 mph 6.0 mph 44 % 0.00 in 809.00 W/m2
11:01 80.3 °F 57.0 °F 29.96 in SSW 5.0 mph 9.0 mph 45 % 0.00 in 817.00 W/m2
11:06 80.7 °F 57.4 °F 29.96 in Calm   7.0 mph 45 % 0.00 in 828.00 W/m2
11:11 81.0 °F 56.4 °F 29.95 in SSW 3.0 mph 9.0 mph 43 % 0.00 in 837.00 W/m2
11:16 81.3 °F 56.7 °F 29.96 in South 6.0 mph 9.0 mph 43 % 0.00 in 844.00 W/m2
11:21 81.6 °F 56.3 °F 29.96 in Calm   8.0 mph 42 % 0.00 in 849.00 W/m2
11:26 81.9 °F 56.6 °F 29.96 in Calm   1.0 mph 42 % 0.00 in 856.00 W/m2
11:31 82.1 °F 56.8 °F 29.96 in SW 3.0 mph 9.0 mph 42 % 0.00 in 867.00 W/m2
11:36 82.4 °F 56.4 °F 29.96 in SSW 8.0 mph 8.0 mph 41 % 0.00 in 874.00 W/m2
11:41 82.5 °F 55.1 °F 29.96 in Calm   5.0 mph 39 % 0.00 in 881.00 W/m2
11:46 82.6 °F 55.2 °F 29.96 in SSW 8.0 mph 13.0 mph 39 % 0.00 in 888.00 W/m2
11:51 82.7 °F 55.2 °F 29.96 in SSW 7.0 mph 7.0 mph 39 % 0.00 in 891.00 W/m2
11:56 82.8 °F 55.3 °F 29.96 in Calm   5.0 mph 39 % 0.00 in 896.00 W/m2
12:01 83.1 °F 54.2 °F 29.96 in South 3.0 mph 3.0 mph 37 % 0.00 in 900.00 W/m2
12:07 83.5 °F 55.2 °F 29.96 in SSW 6.0 mph 9.0 mph 38 % 0.00 in 905.00 W/m2
12:12 83.8 °F 55.5 °F 29.97 in SSW 7.0 mph 10.0 mph 38 % 0.00 in 911.00 W/m2
12:17 84.2 °F 55.1 °F 29.96 in South 6.0 mph 8.0 mph 37 % 0.00 in 916.00 W/m2
12:22 84.6 °F 54.7 °F 29.97 in South 7.0 mph 10.0 mph 36 % 0.00 in 918.00 W/m2
12:27 85.0 °F 53.5 °F 29.96 in South 6.0 mph 13.0 mph 34 % 0.00 in 921.00 W/m2
12:32 85.7 °F 55.7 °F 29.97 in SW 3.0 mph 6.0 mph 36 % 0.00 in 921.00 W/m2
12:37 86.1 °F 55.3 °F 29.96 in Calm   1.0 mph 35 % 0.00 in 925.00 W/m2
12:42 86.2 °F 56.1 °F 29.96 in WSW 8.0 mph 8.0 mph 36 % 0.00 in 925.00 W/m2
12:47 86.1 °F 56.0 °F 29.96 in WSW 5.0 mph 5.0 mph 36 % 0.00 in 930.00 W/m2
12:52 86.2 °F 55.4 °F 29.96 in WSW 5.0 mph 10.0 mph 35 % 0.00 in 926.00 W/m2
12:57 86.5 °F 54.0 °F 29.96 in Calm   3.0 mph 33 % 0.00 in 930.00 W/m2
13:02 86.6 °F 54.9 °F 29.97 in SW 8.0 mph 10.0 mph 34 % 0.00 in 935.00 W/m2
13:07 86.6 °F 54.1 °F 29.96 in SW 5.0 mph 11.0 mph 33 % 0.00 in 930.00 W/m2
13:12 86.5 °F 54.0 °F 29.96 in Calm   4.0 mph 33 % 0.00 in 932.00 W/m2
13:17 86.4 °F 54.7 °F 29.96 in South 7.0 mph 10.0 mph 34 % 0.00 in 930.00 W/m2
13:22 86.6 °F 54.1 °F 29.96 in SSE 7.0 mph 12.0 mph 33 % 0.00 in 926.00 W/m2
13:27 86.7 °F 55.0 °F 29.96 in SSW 9.0 mph 12.0 mph 34 % 0.00 in 925.00 W/m2
13:32 87.2 °F 53.8 °F 29.96 in SSW 8.0 mph 9.0 mph 32 % 0.00 in 923.00 W/m2
13:37 87.6 °F 55.0 °F 29.96 in Calm   2.0 mph 33 % 0.00 in 921.00 W/m2
13:42 88.1 °F 54.6 °F 29.96 in SW 6.0 mph 9.0 mph 32 % 0.00 in 919.00 W/m2
13:47 88.5 °F 54.9 °F 29.96 in SSW 6.0 mph 6.0 mph 32 % 0.00 in 914.00 W/m2
13:52 88.6 °F 55.8 °F 29.96 in Calm   10.0 mph 33 % 0.00 in 912.00 W/m2
13:57 88.5 °F 54.9 °F 29.96 in SSE 10.0 mph 13.0 mph 32 % 0.00 in 911.00 W/m2
14:02 88.8 °F 54.3 °F 29.96 in SW 1.0 mph 11.0 mph 31 % 0.00 in 905.00 W/m2
14:07 89.0 °F 55.3 °F 29.96 in SW 1.0 mph 9.0 mph 32 % 0.00 in 898.00 W/m2
14:12 88.7 °F 54.2 °F 29.96 in West 3.0 mph 13.0 mph 31 % 0.00 in 895.00 W/m2
14:17 88.5 °F 54.0 °F 29.95 in Calm   12.0 mph 31 % 0.00 in 891.00 W/m2
14:22 88.1 °F 54.6 °F 29.95 in Calm   6.0 mph 32 % 0.00 in 882.00 W/m2
14:27 87.7 °F 55.1 °F 29.96 in WSW 7.0 mph 8.0 mph 33 % 0.00 in 877.00 W/m2
14:32 87.5 °F 55.7 °F 29.96 in WSW 6.0 mph 9.0 mph 34 % 0.00 in 870.00 W/m2
14:37 87.6 °F 54.1 °F 29.95 in SW 9.0 mph 9.0 mph 32 % 0.00 in 865.00 W/m2
14:42 87.6 °F 55.0 °F 29.95 in Calm   7.0 mph 33 % 0.00 in 860.00 W/m2
14:47 87.5 °F 54.0 °F 29.95 in Calm   11.0 mph 32 % 0.00 in 849.00 W/m2
14:52 87.7 °F 54.2 °F 29.95 in Calm   1.0 mph 32 % 0.00 in 840.00 W/m2
14:58 87.8 °F 54.3 °F 29.95 in West 7.0 mph 11.0 mph 32 % 0.00 in 831.00 W/m2
15:03 87.9 °F 55.2 °F 29.95 in WSW 2.0 mph 9.0 mph 33 % 0.00 in 821.00 W/m2
15:08 87.8 °F 55.2 °F 29.95 in Calm   9.0 mph 33 % 0.00 in 810.00 W/m2
15:13 87.5 °F 55.7 °F 29.95 in SW 4.0 mph 5.0 mph 34 % 0.00 in 803.00 W/m2
15:18 87.0 °F 54.5 °F 29.95 in Calm   9.0 mph 33 % 0.00 in 793.00 W/m2
15:23 86.9 °F 56.8 °F 29.94 in SW 9.0 mph 12.0 mph 36 % 0.00 in 789.00 W/m2
15:28 87.0 °F 54.5 °F 29.94 in SW 4.0 mph 9.0 mph 33 % 0.00 in 782.00 W/m2
15:33 86.9 °F 55.2 °F 29.94 in Calm   6.0 mph 34 % 0.00 in 770.00 W/m2
15:38 86.5 °F 54.8 °F 29.94 in Calm   6.0 mph 34 % 0.00 in 752.00 W/m2
15:43 86.5 °F 56.4 °F 29.94 in SSW 6.0 mph 9.0 mph 36 % 0.00 in 744.00 W/m2
15:48 86.5 °F 54.8 °F 29.94 in West 4.0 mph 9.0 mph 34 % 0.00 in 731.00 W/m2
15:53 86.5 °F 54.8 °F 29.94 in WSW 6.0 mph 9.0 mph 34 % 0.00 in 719.00 W/m2
15:58 86.3 °F 54.7 °F 29.94 in Calm   1.0 mph 34 % 0.00 in 714.00 W/m2
16:03 86.1 °F 54.5 °F 29.94 in Calm   8.0 mph 34 % 0.00 in 700.00 W/m2
16:08 86.0 °F 56.7 °F 29.94 in WSW 4.0 mph 8.0 mph 37 % 0.00 in 689.00 W/m2
16:13 85.8 °F 55.8 °F 29.94 in WSW 5.0 mph 8.0 mph 36 % 0.00 in 679.00 W/m2
16:18 85.7 °F 55.7 °F 29.94 in WSW 8.0 mph 9.0 mph 36 % 0.00 in 661.00 W/m2
16:23 85.7 °F 55.7 °F 29.94 in WSW 5.0 mph 5.0 mph 36 % 0.00 in 647.00 W/m2
16:28 85.7 °F 55.7 °F 29.94 in Calm   6.0 mph 36 % 0.00 in 635.00 W/m2
16:33 85.6 °F 54.8 °F 29.94 in WSW 5.0 mph 8.0 mph 35 % 0.00 in 624.00 W/m2
16:38 85.4 °F 55.4 °F 29.94 in Calm   11.0 mph 36 % 0.00 in 610.00 W/m2
16:43 85.4 °F 53.9 °F 29.94 in Calm   10.0 mph 34 % 0.00 in 598.00 W/m2
16:48 85.4 °F 53.9 °F 29.94 in Calm   5.0 mph 34 % 0.00 in 575.00 W/m2
16:53 85.4 °F 55.4 °F 29.94 in WSW 4.0 mph 5.0 mph 36 % 0.00 in 554.00 W/m2
16:58 85.3 °F 54.6 °F 29.94 in Calm   8.0 mph 35 % 0.00 in 541.00 W/m2
17:03 85.4 °F 54.7 °F 29.94 in SW 7.0 mph 11.0 mph 35 % 0.00 in 527.00 W/m2
17:08 85.3 °F 54.6 °F 29.94 in Calm   8.0 mph 35 % 0.00 in 517.00 W/m2
17:13 85.2 °F 55.3 °F 29.94 in Calm   7.0 mph 36 % 0.00 in 510.00 W/m2
17:18 85.0 °F 54.3 °F 29.94 in SW 3.0 mph 9.0 mph 35 % 0.00 in 492.00 W/m2
17:23 84.7 °F 54.8 °F 29.94 in Calm     36 % 0.00 in 480.00 W/m2
17:28 84.5 °F 55.4 °F 29.94 in Calm     37 % 0.00 in 462.00 W/m2
17:33 84.4 °F 56.0 °F 29.94 in Calm   6.0 mph 38 % 0.00 in 432.00 W/m2
17:38 84.3 °F 56.0 °F 29.94 in Calm   5.0 mph 38 % 0.00 in 429.00 W/m2
17:43 84.3 °F 55.2 °F 29.94 in Calm   7.0 mph 37 % 0.00 in 410.00 W/m2
17:48 84.1 °F 54.3 °F 29.94 in Calm     36 % 0.00 in 396.00 W/m2
17:53 84.0 °F 54.2 °F 29.94 in Calm   2.0 mph 36 % 0.00 in 378.00 W/m2
17:58 84.0 °F 54.2 °F 29.94 in Calm   3.0 mph 36 % 0.00 in 362.00 W/m2
18:03 84.0 °F 55.0 °F 29.93 in SSW 1.0 mph 2.0 mph 37 % 0.00 in 357.00 W/m2
18:08 83.8 °F 54.8 °F 29.93 in Calm   7.0 mph 37 % 0.00 in 341.00 W/m2
18:13 83.7 °F 54.7 °F 29.93 in SSW 4.0 mph 4.0 mph 37 % 0.00 in 329.00 W/m2
18:18 83.6 °F 53.8 °F 29.93 in Calm   1.0 mph 36 % 0.00 in 311.00 W/m2
18:23 83.5 °F 55.2 °F 29.93 in SSW 3.0 mph 4.0 mph 38 % 0.00 in 292.00 W/m2
18:28 83.5 °F 54.5 °F 29.93 in SSW 1.0 mph 3.0 mph 37 % 0.00 in 279.00 W/m2
18:33 83.3 °F 55.1 °F 29.93 in Calm   3.0 mph 38 % 0.00 in 264.00 W/m2
18:38 83.2 °F 56.4 °F 29.93 in Calm   1.0 mph 40 % 0.00 in 248.00 W/m2
18:43 82.8 °F 56.0 °F 29.94 in Calm   5.0 mph 40 % 0.00 in 234.00 W/m2
18:48 82.4 °F 57.0 °F 29.93 in Calm   1.0 mph 42 % 0.00 in 220.00 W/m2
18:53 82.0 °F 56.7 °F 29.93 in Calm   1.0 mph 42 % 0.00 in 202.00 W/m2
18:58 81.6 °F 57.0 °F 29.93 in Calm   1.0 mph 43 % 0.00 in 190.00 W/m2
19:03 81.3 °F 55.4 °F 29.93 in Calm     41 % 0.00 in 174.00 W/m2
19:08 80.9 °F 55.7 °F 29.93 in Calm   1.0 mph 42 % 0.00 in 160.00 W/m2
19:13 80.5 °F 56.0 °F 29.93 in Calm     43 % 0.00 in 141.00 W/m2
19:18 80.0 °F 56.2 °F 29.93 in Calm   1.0 mph 44 % 0.00 in 125.00 W/m2
19:23 79.6 °F 57.0 °F 29.93 in Calm     46 % 0.00 in 107.00 W/m2
19:28 79.2 °F 56.7 °F 29.93 in Calm     46 % 0.00 in 91.00 W/m2
19:34 78.8 °F 55.7 °F 29.93 in Calm   1.0 mph 45 % 0.00 in 76.00 W/m2
19:39 78.6 °F 56.1 °F 29.93 in Calm     46 % 0.00 in 62.00 W/m2
19:44 78.2 °F 56.3 °F 29.93 in Calm     47 % 0.00 in 49.00 W/m2
19:49 77.8 °F 56.0 °F 29.94 in Calm     47 % 0.00 in 39.00 W/m2
19:54 77.3 °F 55.5 °F 29.93 in Calm     47 % 0.00 in 30.00 W/m2
19:59 76.7 °F 55.0 °F 29.93 in Calm     47 % 0.00 in 23.00 W/m2
20:04 76.2 °F 54.5 °F 29.94 in Calm     47 % 0.00 in 19.00 W/m2
20:09 75.8 °F 53.6 °F 29.94 in Calm     46 % 0.00 in 16.00 W/m2
20:14 75.5 °F 53.3 °F 29.94 in Calm     46 % 0.00 in 14.00 W/m2
20:19 75.3 °F 53.1 °F 29.94 in Calm     46 % 0.00 in 11.00 W/m2
20:24 75.2 °F 52.4 °F 29.94 in Calm     45 % 0.00 in 7.00 W/m2
20:29 74.9 °F 52.8 °F 29.94 in Calm     46 % 0.00 in 5.00 W/m2
20:34 74.6 °F 51.3 °F 29.94 in Calm     44 % 0.00 in 0.00 W/m2
20:39 74.3 °F 51.0 °F 29.94 in Calm     44 % 0.00 in 0.00 W/m2
20:44 74.0 °F 50.7 °F 29.95 in Calm     44 % 0.00 in 0.00 W/m2
20:49 73.8 °F 49.9 °F 29.94 in Calm     43 % 0.00 in 0.00 W/m2
20:54 73.6 °F 49.8 °F 29.95 in Calm     43 % 0.00 in 0.00 W/m2
20:59 73.5 °F 49.7 °F 29.95 in Calm     43 % 0.00 in 0.00 W/m2
21:04 73.4 °F 49.6 °F 29.95 in Calm     43 % 0.00 in 0.00 W/m2
21:09 73.3 °F 49.5 °F 29.95 in Calm     43 % 0.00 in 0.00 W/m2
21:14 73.1 °F 49.3 °F 29.96 in Calm     43 % 0.00 in 0.00 W/m2
21:19 73.0 °F 49.8 °F 29.96 in Calm     44 % 0.00 in 0.00 W/m2
21:24 72.9 °F 49.7 °F 29.96 in Calm     44 % 0.00 in 0.00 W/m2
21:29 72.8 °F 49.0 °F 29.96 in Calm     43 % 0.00 in 0.00 W/m2
21:34 72.8 °F 49.0 °F 29.96 in Calm     43 % 0.00 in 0.00 W/m2
21:39 72.7 °F 48.9 °F 29.96 in Calm     43 % 0.00 in 0.00 W/m2
21:44 72.6 °F 49.5 °F 29.96 in Calm     44 % 0.00 in 0.00 W/m2
21:45 72.6 °F 49.5 °F 29.96 in Calm     44 % 0.00 in 0.00 W/m2
21:50 72.5 °F 48.8 °F 29.96 in Calm     43 % 0.00 in 0.00 W/m2
21:55 72.5 °F 48.8 °F 29.97 in Calm     43 % 0.00 in 0.00 W/m2
22:00 72.4 °F 48.7 °F 29.96 in Calm     43 % 0.00 in 0.00 W/m2
22:05 72.3 °F 49.2 °F 29.97 in Calm     44 % 0.00 in 0.00 W/m2
22:10 72.2 °F 49.1 °F 29.97 in Calm   1.0 mph 44 % 0.00 in 0.00 W/m2
22:15 72.2 °F 49.1 °F 29.97 in Calm   5.0 mph 44 % 0.00 in 0.00 W/m2
22:20 72.2 °F 49.1 °F 29.97 in Calm   6.0 mph 44 % 0.00 in 0.00 W/m2
22:25 72.2 °F 50.3 °F 29.97 in Calm   7.0 mph 46 % 0.00 in 0.00 W/m2
22:30 72.2 °F 50.3 °F 29.97 in Calm   6.0 mph 46 % 0.00 in 0.00 W/m2
22:35 72.2 °F 50.9 °F 29.96 in SE 4.0 mph 8.0 mph 47 % 0.00 in 0.00 W/m2
22:40 72.2 °F 51.4 °F 29.96 in Calm   9.0 mph 48 % 0.00 in 0.00 W/m2
22:45 72.2 °F 51.4 °F 29.96 in Calm   9.0 mph 48 % 0.00 in 0.00 W/m2
22:50 72.2 °F 52.0 °F 29.96 in ESE 2.0 mph 7.0 mph 49 % 0.00 in 0.00 W/m2
22:55 72.2 °F 52.0 °F 29.96 in Calm   9.0 mph 49 % 0.00 in 0.00 W/m2
23:00 72.2 °F 52.5 °F 29.96 in Calm   7.0 mph 50 % 0.00 in 0.00 W/m2
23:05 72.2 °F 53.1 °F 29.96 in ESE 1.0 mph 9.0 mph 51 % 0.00 in 0.00 W/m2
23:10 72.2 °F 53.6 °F 29.96 in Calm   11.0 mph 52 % 0.00 in 0.00 W/m2
23:15 72.2 °F 53.6 °F 29.96 in ESE 6.0 mph 7.0 mph 52 % 0.00 in 0.00 W/m2
23:20 72.2 °F 54.1 °F 29.96 in ESE 9.0 mph 9.0 mph 53 % 0.00 in 0.00 W/m2
23:25 72.2 °F 54.1 °F 29.96 in Calm   9.0 mph 53 % 0.00 in 0.00 W/m2
23:30 72.2 °F 54.1 °F 29.96 in ESE 4.0 mph 5.0 mph 53 % 0.00 in 0.00 W/m2
23:35 72.2 °F 54.1 °F 29.96 in Calm   7.0 mph 53 % 0.00 in 0.00 W/m2
23:40 72.2 °F 54.1 °F 29.97 in Calm   5.0 mph 53 % 0.00 in 0.00 W/m2
23:45 72.1 °F 54.0 °F 29.97 in ESE 4.0 mph 7.0 mph 53 % 0.00 in 0.00 W/m2
23:50 72.0 °F 54.5 °F 29.96 in Calm   7.0 mph 54 % 0.00 in 0.00 W/m2
23:55 72.0 °F 54.5 °F 29.96 in ESE 6.0 mph 6.0 mph 54 % 0.00 in 0.00 W/m2
Juneau County Weather
Compliments of Weather Underground - 4.5 mb
 WU-history PHP script courtesy of   Juneau County Weather.
powered by Cumulus v1.9.3 (1059)
Ambient Weather VWS v14.00
Top Contact Website Map Copyright © 2007 - 2018 Foresthillweather.com Never base important decisions on this or any weather information obtained from the Internet